KF6ILA Weather Reports


time (UTC)temp
F
wind
direction
speed
knots
gust
knots
rain 1hr
in
rain 24hr
in
rain mn
in
humidity
%
barometer
mb
20260903015854 64 272 15.6 20.9 0.00 0.00 0.00 60 1015.3
20260903015357 64 266 15.6 21.7 0.00 0.00 0.00 58 1015.4
20260903014900 65 267 17.4 21.7 0.00 0.00 0.00 56 1015.4
20260903014403 65 266 15.6 20.9 0.00 0.00 0.00 55 1015.4
20260903013409 66 267 17.4 23.5 0.00 0.00 0.00 53 1014.5
20260903012912 67 261 14.8 22.6 0.00 0.00 0.00 51 1014.6
20260903011421 68 261 14.8 21.7 0.00 0.00 0.00 48 1014.7
20260903010924 69 257 14.8 20.9 0.00 0.00 0.00 48 1014.8
20260903010427 69 256 13.0 23.5 0.00 0.00 0.00 47 1014.9
20260903005930 69 259 17.4 23.5 0.00 0.00 0.00 45 1014.9
20260903005433 70 258 13.9 20.9 0.00 0.00 0.00 44 1014.7
20260903004439 70 260 13.9 20.9 0.00 0.00 0.00 41 1014.9
20260903003942 71 247 13.0 20.9 0.00 0.00 0.00 39 1015.0
20260903002948 71 248 12.2 20.9 0.00 0.00 0.00 38 1015.1
20260903001954 72 247 10.4 20.0 0.00 0.00 0.00 37 1015.1
20260903001457 72 267 13.0 20.9 0.00 0.00 0.00 38 1015.3
20260902235509 74 264 12.2 20.0 0.00 0.00 0.00 36 1015.1
20260902235012 73 261 11.3 20.0 0.00 0.00 0.00 35 1015.2
20260902234515 73 263 12.2 21.7 0.00 0.00 0.00 36 1015.2
20260902234018 74 263 16.5 21.7 0.00 0.00 0.00 35 1015.1
20260902233521 74 255 12.2 21.7 0.00 0.00 0.00 35 1015.2
20260902232527 75 265 13.9 22.6 0.00 0.00 0.00 36 1015.6
20260902231036 75 259 14.8 21.7 0.00 0.00 0.00 33 1015.4
20260902230539 75 249 13.0 21.7 0.00 0.00 0.00 34 1015.7
20260902230042 76 237 12.2 20.9 0.00 0.00 0.00 32 1015.7
20260902225048 76 247 12.2 22.6 0.00 0.00 0.00 32 1015.9
20260902224551 76 256 13.0 22.6 0.00 0.00 0.00 30 1015.7
20260902224054 76 256 13.9 22.6 0.00 0.00 0.00 30 1016.0
20260902223557 76 248 14.8 25.2 0.00 0.00 0.00 27 1016.0
20260902223100 77 265 18.2 25.2 0.00 0.00 0.00 26 1015.7
20260902222603 77 254 10.4 23.5 0.00 0.00 0.00 27 1016.1
20260902222106 77 254 11.3 26.1 0.00 0.00 0.00 24 1015.9
20260902221609 77 242 14.8 26.1 0.00 0.00 0.00 26 1016.1
20260902221112 77 251 11.3 25.2 0.00 0.00 0.00 24 1016.3
20260902220615 78 246 15.6 25.2 0.00 0.00 0.00 22 1016.2
20260902220118 78 249 13.0 22.6 0.00 0.00 0.00 23 1016.4
20260902215621 79 256 12.2 18.2 0.00 0.00 0.00 21 1016.3
20260902215124 78 259 12.2 21.7 0.00 0.00 0.00 20 1016.3
20260902214627 78 229 13.0 21.7 0.00 0.00 0.00 19 1016.4
20260902214130 78 259 9.6 21.7 0.00 0.00 0.00 21 1016.2
20260902213633 78 237 12.2 21.7 0.00 0.00 0.00 19 1016.6
20260902213136 78 241 8.7 22.6 0.00 0.00 0.00 19 1016.5
20260902212639 77 232 11.3 23.5 0.00 0.00 0.00 19 1016.5
20260902211148 76 257 16.5 23.5 0.00 0.00 0.00 19 1016.5
20260902210651 76 265 13.0 25.2 0.00 0.00 0.00 19 1016.5
20260902205657 76 272 14.8 23.5 0.00 0.00 0.00 18 1016.7
20260902202715 76 271 14.8 25.2 0.00 0.00 0.00 19 1016.7
20260902201722 75 263 14.8 26.1 0.00 0.00 0.00 20 1016.8
20260902201224 75 257 14.8 26.1 0.00 0.00 0.00 21 1017.1
20260902200727 76 274 18.2 26.1 0.00 0.00 0.00 20 1016.7
20260902200230 76 254 12.2 25.2 0.00 0.00 0.00 20 1017.1
20260902195734 75 252 12.2 25.2 0.00 0.00 0.00 20 1017.0
20260902195236 75 277 14.8 23.5 0.00 0.00 0.00 20 1016.9
20260902194242 76 262 13.0 21.7 0.00 0.00 0.00 21 1017.0
20260902193745 75 265 12.2 22.6 0.00 0.00 0.00 21 1017.2
20260902193248 75 263 14.8 22.6 0.00 0.00 0.00 21 1017.2
20260902192752 76 259 13.0 22.6 0.00 0.00 0.00 20 1017.1
20260902192254 75 260 9.6 26.1 0.00 0.00 0.00 21 1017.2
20260902191301 74 270 14.8 23.5 0.00 0.00 0.00 20 1017.3
20260902190804 74 267 13.0 24.3 0.00 0.00 0.00 20 1017.3
20260902184816 74 271 13.9 22.6 0.00 0.00 0.00 20 1017.2
20260902184319 74 280 12.2 22.6 0.00 0.00 0.00 20 1017.3
20260902183324 74 268 14.8 22.6 0.00 0.00 0.00 20 1017.4
20260902182828 75 255 13.9 21.7 0.00 0.00 0.00 20 1017.4
20260902182331 74 263 10.4 22.6 0.00 0.00 0.00 21 1017.4
20260902181833 73 272 15.6 23.5 0.00 0.00 0.00 21 1017.2
20260902180839 72 263 13.9 24.3 0.00 0.00 0.00 22 1017.3
20260902180342 72 262 13.9 23.5 0.00 0.00 0.00 22 1017.3
20260902175348 72 275 15.6 25.2 0.00 0.00 0.00 22 1017.2
20260902174852 72 264 13.9 25.2 0.00 0.00 0.00 22 1017.2
20260902174354 71 265 15.6 23.5 0.00 0.00 0.00 21 1017.2
20260902173858 71 271 18.2 23.5 0.00 0.00 0.00 21 1017.1
20260902173400 71 263 15.6 23.5 0.00 0.00 0.00 21 1017.2
20260902172903 71 269 16.5 25.2 0.00 0.00 0.00 21 1017.0
20260902172406 71 269 17.4 25.2 0.00 0.00 0.00 20 1017.1
20260902170916 70 272 15.6 25.2 0.00 0.00 0.00 41 1016.8
20260902170418 70 272 14.8 25.2 0.00 0.00 0.00 21 1016.9
20260902165424 70 265 17.4 25.2 0.00 0.00 0.00 21 1017.0
20260902164928 69 273 15.6 29.5 0.00 0.00 0.00 22 1016.8
20260902164430 69 270 17.4 29.5 0.00 0.00 0.00 22 1016.7
20260902162940 69 266 16.5 23.5 0.00 0.00 0.00 22 1016.8
20260902161946 68 264 15.6 22.6 0.00 0.00 0.00 22 1016.8
20260902161448 68 266 13.9 22.6 0.00 0.00 0.00 23 1016.8
20260902160952 68 272 14.8 20.9 0.00 0.00 0.00 23 1016.6
20260902160454 68 271 13.0 20.0 0.00 0.00 0.00 23 1016.7
20260902155958 68 270 13.0 19.1 0.00 0.00 0.00 23 1016.7
20260902155501 68 262 11.3 19.1 0.00 0.00 0.00 23 1016.6
20260902153513 66 260 13.0 20.9 0.00 0.00 0.00 24 1016.6
20260902153016 66 257 14.8 20.9 0.00 0.00 0.00 24 1016.4
20260902152022 65 255 13.9 22.6 0.00 0.00 0.00 24 1016.2
20260902151525 65 256 13.0 22.6 0.00 0.00 0.00 24 1016.3
20260902151028 65 260 13.9 22.6 0.00 0.00 0.00 25 1016.2
20260902150531 65 257 13.0 20.0 0.00 0.00 0.00 25 1016.1
20260902150034 64 254 13.9 20.9 0.00 0.00 0.00 25 1016.2
20260902145537 64 260 13.9 20.9 0.00 0.00 0.00 25 1016.1
20260902145040 64 255 13.0 20.0 0.00 0.00 0.00 26 1016.2
20260902144543 63 257 13.9 20.0 0.00 0.00 0.00 25 1016.2
20260902143549 63 260 13.9 20.9 0.00 0.00 0.00 25 1016.2
20260902142555 63 256 13.0 20.9 0.00 0.00 0.00 26 1016.2
20260902142058 62 257 13.0 20.9 0.00 0.00 0.00 26 1016.3
20260902141104 62 258 13.9 20.9 0.00 0.00 0.00 26 1016.2
20260902140607 62 258 14.8 20.0 0.00 0.00 0.00 26 1016.2
20260902135613 62 255 14.8 23.5 0.00 0.00 0.00 26 1015.9
20260902135116 62 255 14.8 23.5 0.00 0.00 0.00 26 1016.0
20260902134619 62 256 13.9 20.9 0.00 0.00 0.00 26 1016.0
20260902134122 62 256 15.6 20.9 0.00 0.00 0.00 26 1015.9
20260902133625 62 257 15.6 20.9 0.00 0.00 0.00 26 1015.8
20260902133128 62 254 15.6 20.9 0.00 0.00 0.00 27 1015.8
20260902132631 62 253 14.8 20.9 0.00 0.00 0.00 27 1015.7
20260902132134 62 250 13.9 20.9 0.00 0.00 0.00 27 1015.6
20260902131637 62 254 13.9 20.0 0.00 0.00 0.00 27 1015.5
20260902131140 62 248 13.9 20.9 0.00 0.00 0.00 27 1015.6
20260902125650 62 255 15.6 23.5 0.00 0.00 0.00 27 1015.3
20260902124158 62 257 15.6 21.7 0.00 0.00 0.00 27 1015.4
20260902123702 62 263 17.4 22.6 0.00 0.00 0.00 27 1015.4
20260902123204 63 256 15.6 22.6 0.00 0.00 0.00 27 1015.4
20260902122707 62 260 14.8 20.9 0.00 0.00 0.00 26 1015.4
20260902122210 63 256 15.6 20.9 0.00 0.00 0.00 27 1015.4
20260902121216 63 257 17.4 21.7 0.00 0.00 0.00 27 1015.4
20260902120719 63 256 14.8 21.7 0.00 0.00 0.00 27 1015.4
20260902115725 63 257 16.5 22.6 0.00 0.00 0.00 26 1015.5
20260902112246 62 255 16.5 21.7 0.00 0.00 0.00 28 1015.4
20260902111749 62 251 13.9 20.9 0.00 0.00 0.00 28 1015.5
20260902111252 62 250 15.6 22.6 0.00 0.00 0.00 28 1015.6
20260902110755 62 250 15.6 22.6 0.00 0.00 0.00 28 1015.5
20260902110258 62 253 16.5 21.7 0.00 0.00 0.00 28 1015.4
20260902105801 62 248 15.6 20.9 0.00 0.00 0.00 28 1015.6
20260902105306 62 259 16.5 21.7 0.00 0.00 0.00 28 1015.5
20260902104807 62 255 16.5 21.7 0.00 0.00 0.00 28 1015.6
20260902104310 62 257 18.2 22.6 0.00 0.00 0.00 28 1015.6
20260902103813 62 261 18.2 22.6 0.00 0.00 0.00 28 1015.6
20260902103316 62 260 16.5 22.6 0.00 0.00 0.00 28 1015.6
20260902102819 62 259 16.5 24.3 0.00 0.00 0.00 28 1015.7
20260902102322 62 258 18.2 24.3 0.00 0.00 0.00 28 1015.7
20260902101825 62 259 17.4 22.6 0.00 0.00 0.00 28 1015.8
20260902101328 62 257 16.5 22.6 0.00 0.00 0.00 28 1015.8
20260902100831 62 251 16.5 22.6 0.00 0.00 0.00 28 1015.8
20260902100334 62 258 16.5 21.7 0.00 0.00 0.00 28 1015.8
20260902095837 62 253 15.6 22.6 0.00 0.00 0.00 28 1015.8
20260902094843 62 258 16.5 23.5 0.00 0.00 0.00 28 1015.8
20260902094346 62 259 16.5 24.3 0.00 0.00 0.00 28 1015.9
20260902093849 62 261 17.4 24.3 0.00 0.00 0.00 28 1015.8
20260902093352 62 259 17.4 22.6 0.00 0.00 0.00 28 1015.8
20260902092358 62 260 16.5 23.5 0.00 0.00 0.00 28 1015.9
20260902091404 62 255 16.5 22.6 0.00 0.00 0.00 28 1016.0
20260902090907 62 255 14.8 22.6 0.00 0.00 0.00 28 1015.9
20260902090410 62 256 13.9 21.7 0.00 0.00 0.00 28 1016.1
20260902085416 62 255 14.8 21.7 0.00 0.00 0.00 28 1016.3
20260902084919 62 258 16.5 20.9 0.00 0.00 0.00 28 1016.2
20260902083428 62 260 14.8 20.9 0.00 0.00 0.00 28 1016.1
20260902082931 62 257 14.8 20.9 0.00 0.00 0.00 27 1016.2
20260902082434 61 251 14.8 20.9 0.00 0.00 0.00 27 1016.1
20260902081937 0 255 16.5 20.9 0.00 0.00 0.00 27 1016.2
20260902081440 61 256 15.6 20.9 0.00 0.00 0.00 27 1016.2
20260902080943 61 256 14.8 20.9 0.00 0.00 0.00 27 1016.2
20260902080446 61 258 14.8 21.7 0.00 0.00 0.00 27 1016.2
20260902075949 61 256 13.9 22.6 0.00 0.00 0.00 26 1016.1
20260902075452 61 255 16.5 22.6 0.00 0.00 0.00 26 1016.1
20260902074458 61 257 15.6 20.9 0.00 0.00 0.00 26 1016.2
20260902074001 61 259 15.6 20.9 0.00 0.00 0.00 27 1016.2
20260902072510 61 254 13.9 20.9 0.00 0.00 0.00 29 1016.0
20260902072013 61 259 14.8 20.9 0.00 0.00 0.00 29 1016.0
20260902071516 61 258 15.6 20.9 0.00 0.00 0.00 30 1015.8
20260902070025 61 261 14.8 20.9 0.00 0.00 0.00 33 1015.8
20260902065528 61 261 14.8 20.0 0.00 0.00 0.00 33 1016.6
20260902065031 61 260 13.0 20.0 0.00 0.00 0.00 33 1016.6
20260902064534 61 263 13.9 20.9 0.00 0.00 0.00 34 1016.6
20260902064037 61 262 14.8 20.9 0.00 0.00 0.00 34 1016.7
20260902063540 61 261 14.8 21.7 0.00 0.00 0.00 35 1016.6
20260902062049 61 265 14.8 20.9 0.00 0.00 0.00 35 1016.7
20260902061552 61 262 15.6 20.9 0.00 0.00 0.00 35 1016.6
20260902061055 62 262 14.8 20.9 0.00 0.00 0.00 34 1016.4
20260902060558 62 252 14.8 20.0 0.00 0.00 0.00 34 1016.5
20260902060101 61 261 14.8 20.0 0.00 0.00 0.00 34 1016.5
20260902055604 62 256 15.6 20.9 0.00 0.00 0.00 34 1016.5
20260902055107 62 259 15.6 20.9 0.00 0.00 0.00 33 1016.4
20260902054610 62 262 13.9 20.9 0.00 0.00 0.00 32 1016.4
20260902053119 62 256 13.9 22.6 0.00 0.00 0.00 31 1016.4
20260902052622 62 255 15.6 20.9 0.00 0.00 0.00 32 1016.4
20260902052125 62 258 13.0 20.9 0.00 0.00 0.00 31 1016.4
20260902051628 62 259 13.9 20.9 0.00 0.00 0.00 31 1016.4
20260902051131 61 258 15.6 20.9 0.00 0.00 0.00 32 1016.4
20260902050137 61 253 13.0 19.1 0.00 0.00 0.00 33 1016.5
20260902045640 61 255 13.9 19.1 0.00 0.00 0.00 34 1016.4
20260902044646 60 249 13.0 18.2 0.00 0.00 0.00 40 1016.4
20260902044149 60 248 12.2 17.4 0.00 0.00 0.00 45 1016.4
20260902043652 60 249 12.2 17.4 0.00 0.00 0.00 49 1016.4
20260902043155 60 249 13.0 17.4 0.00 0.00 0.00 53 1016.3
20260902042201 60 249 11.3 17.4 0.00 0.00 0.00 54 1016.0
20260902040213 59 264 11.3 15.6 0.00 0.00 0.00 66 1015.8
20260902035716 59 263 10.4 15.6 0.00 0.00 0.00 68 1015.7
20260902035219 59 261 11.3 17.4 0.00 0.00 0.00 67 1015.7
20260902034722 60 253 13.0 18.2 0.00 0.00 0.00 67 1015.6
20260902034225 60 254 12.2 18.2 0.00 0.00 0.00 67 1015.4
20260902033728 60 257 11.3 15.6 0.00 0.00 0.00 67 1015.3
20260902032734 60 257 13.0 20.0 0.00 0.00 0.00 64 1015.3
20260902032237 61 260 12.2 19.1 0.00 0.00 0.00 63 1015.2
20260902031740 61 263 13.0 20.0 0.00 0.00 0.00 63 1015.2
20260902030746 61 262 13.0 20.0 0.00 0.00 0.00 61 1015.1
20260902025752 62 263 13.0 18.2 0.00 0.00 0.00 60 1015.1
20260902025255 62 258 12.2 18.2 0.00 0.00 0.00 59 1015.1
20260902024758 62 262 13.0 17.4 0.00 0.00 0.00 58 1015.0
20260902023804 63 261 12.2 19.1 0.00 0.00 0.00 55 1015.0
20260902022810 64 260 13.0 20.9 0.00 0.00 0.00 53 1014.8
20260902022313 64 269 15.6 20.9 0.00 0.00 0.00 52 1014.9
20260902021816 65 265 15.6 20.9 0.00 0.00 0.00 52 1014.7
20260902020325 66 264 15.6 21.7 0.00 0.00 0.00 51 1014.7